sat.trackr.live / text

‹ back to catalog

ONEWEB-0678

NORAD 56714 · 2023-068E

PAYLOAD ACTIVE UNKNOWN

§ Identity

Operator
Country
UK
Launch date
2023-05-20
Launch site
AFWTR
Launch vehicle
Mass (kg)
RCS (m²)

Purposes: comms

External: N2YO · Heavens-Above · Gunter

§ Orbital elements

Epoch: 2026-05-25T00:55:30.732096Z

Period
109.46 min
Inclination
87.8998°
Eccentricity
0.0001749
Mean motion
13.15547437 rev/d
Perigee alt
1,200.4 km
Apogee alt
1,203.1 km
Semi-major
7,579.9 km
B*
-2.6828e-4
RAAN
263.8042°
Arg perigee
92.6333°
Mean anomaly
267.4998°
Rev number
14,624

§ Raw data

ONEWEB-06781 56714U 23068E   26145.03855014 -.00000088  00000+0 -26828-3 0  99922 56714  87.8998 263.8042 0001749  92.6333 267.4998 13.15547437146248

JSON: /api/v1/satellites/56714 · /tle

For live sub-satellite position, see the globe view (requires WebGL).

§ Visibility from observer

Set your observer location to see the next 7 days of passes ≥ 10°. The values pass through the URL so the page stays shareable.

No JS? Fill the form by hand. The geolocation button needs JavaScript.